DW9022 Weather Reports


time (UTC)temp
F
wind
direction
speed
knots
gust
knots
rain 1hr
in
rain 24hr
in
rain mn
in
humidity
%
barometer
mb
20260504081512 56 206 0.0 2.6 0.00 0.00 0.00 75 1007.5
20260504060110 58 169 0.0 0.9 0.00 0.00 0.00 68 1008.9
20260504050022 60 144 0.0 1.7 0.00 0.00 0.00 64 1008.6
20260504044547 61 111 0.9 1.7 0.00 0.00 0.00 65 1008.7
20260504041512 61 187 0.0 0.9 0.00 0.00 0.00 66 1009.6
20260504040018 60 148 0.9 3.5 0.00 0.00 0.00 66 1009.4
20260504034514 61 159 0.0 0.0 0.00 0.00 0.00 67 1009.7
20260504033008 61 159 0.0 0.0 0.00 0.00 0.00 67 1009.8
20260504031510 61 159 0.9 2.6 0.00 0.00 0.00 64 1009.8
20260504030006 61 76 0.0 0.0 0.00 0.00 0.00 65 1010.2
20260504024508 62 76 0.0 0.0 0.00 0.00 0.00 64 1010.1
20260504023013 63 76 0.0 0.0 0.00 0.00 0.00 61 1009.7
20260504021542 63 76 0.0 0.0 0.00 0.00 0.00 60 1009.8
20260504020042 64 76 0.0 0.0 0.00 0.00 0.00 60 1009.9
20260504014539 64 76 0.0 1.7 0.00 0.00 0.00 58 1009.8
20260504013037 66 40 0.0 0.0 0.00 0.00 0.00 55 1009.6
20260504011539 67 40 0.0 0.0 0.00 0.00 0.00 50 1009.5
20260504010040 68 40 0.0 0.0 0.00 0.00 0.00 46 1009.3
20260504004541 69 34 0.0 0.0 0.00 0.00 0.00 46 1009.4
20260504003038 70 238 0.0 0.0 0.00 0.00 0.00 45 1009.4
20260504001528 70 238 0.9 1.7 0.00 0.00 0.00 41 1009.0
20260504000045 71 238 0.0 4.3 0.00 0.00 0.00 40 1009.3
20260503234519 71 237 0.9 3.5 0.00 0.00 0.00 40 1009.4
20260503233011 72 240 0.9 2.6 0.00 0.00 0.00 38 1009.7
20260503231523 72 212 0.0 2.6 0.00 0.00 0.00 38 1009.4
20260503230019 72 221 2.6 5.2 0.00 0.00 0.00 36 1009.4
20260503224507 72 214 1.7 6.1 0.00 0.00 0.00 35 1009.1
20260503223101 72 210 1.7 7.0 0.00 0.00 0.00 35 1009.6
20260503221547 72 244 2.6 8.7 0.00 0.00 0.00 34 1009.8
20260503220039 72 225 2.6 7.0 0.00 0.00 0.00 33 1009.6
20260503214513 72 215 3.5 8.7 0.00 0.00 0.00 33 1009.9
20260503213014 72 182 3.5 10.4 0.00 0.00 0.00 33 1010.1
20260503211505 72 222 1.7 8.7 0.00 0.00 0.00 33 1010.3
20260503210005 71 201 2.6 8.7 0.00 0.00 0.00 32 1010.7
20260503204502 71 225 5.2 10.4 0.00 0.00 0.00 31 1010.7
20260503203105 70 179 1.7 6.1 0.00 0.00 0.00 33 1011.0
20260503201557 70 205 2.6 8.7 0.00 0.00 0.00 33 1011.5
20260503200045 69 229 4.3 8.7 0.00 0.00 0.00 33 1011.5
20260503194542 68 211 3.5 9.6 0.00 0.00 0.00 33 1011.9
20260503193054 68 233 2.6 7.8 0.00 0.00 0.00 35 1011.9
20260503191525 68 150 2.6 8.7 0.00 0.00 0.00 35 1012.2
20260503190035 69 214 1.7 5.2 0.00 0.00 0.00 35 1012.6
20260503184521 68 159 2.6 8.7 0.00 0.00 0.00 36 1012.4
20260503183025 67 202 1.7 8.7 0.00 0.00 0.00 37 1012.8
20260503181539 66 235 1.7 8.7 0.00 0.00 0.00 37 1013.2
20260503180034 65 190 4.3 8.7 0.00 0.00 0.00 35 1013.7
20260503174527 66 198 3.5 7.8 0.00 0.00 0.00 38 1014.1
20260503173040 64 232 3.5 8.7 0.00 0.00 0.00 37 1014.1
20260503171511 66 198 6.1 10.4 0.00 0.00 0.00 35 1015.1
20260503110104 42 210 0.0 1.7 0.00 0.00 0.00 76 1018.3